Weather History for Sand Point, AK

Change the Weather History Date:

Sunday, March 23, 2014

  Actual Average Record
Temperature  
Mean Temperature 38 °F -  
Max Temperature 39 °F 33 °F 44 °F (1981)
Min Temperature 37 °F 26 °F 10 °F (2009)
Degree Days  
Heating Degree Days 27    
Moisture  
Dew Point 37 °F    
Average Humidity 93    
Maximum Humidity 100    
Minimum Humidity 87    
Precipitation  
Precipitation 0.00 in - - ()
Sea Level Pressure  
Sea Level Pressure 30.08 in    
Wind  
Wind Speed 7 mph (ENE)    
Max Wind Speed 12 mph    
Max Gust Speed 25 mph    
Visibility 7 miles    
Events      
Averages and records for this station are not official NWS values.
T = Trace of Precipitation, MM = Missing Value Source: NWS Daily Summary

Daily Weather History Graph

Daily Weather History Graph

Search for Another Location

Airport:

Trip Planner

Search our weather history database for the weather conditions in past years. The results will help you decide how hot, cold, wet, or windy it might be!

Date:

Astronomy

Mar. 23, 2014 Rise Set
Actual Time 8:35 AM AKDT 9:02 PM AKDT
Civil Twilight 7:59 AM AKDT 9:39 PM AKDT
Nautical Twilight 7:15 AM AKDT 10:22 PM AKDT
Astronomical Twilight 6:29 AM AKDT 11:09 PM AKDT
Moon 4:19 AM AKDT (3/23) 12:39 PM AKDT (3/23)
Length of Visible Light 13h 39m
Length of Day
12h 26m
Waning Gibbous, 53% of the Moon is Illuminated
Mar 23
Waning Gibbous
Mar 23
Last Quarter
Mar 30
New
Apr 7
First Quarter
Apr 14
Full

Hourly Weather History & Observations

Time (AKDT) Temp. Windchill Dew Point Humidity Pressure Visibility Wind Dir Wind Speed Gust Speed Precip Events Conditions
12:16 AM 39.2 °F 34.2 °F 37.4 °F 93% 30.08 in 10.0 mi ENE 6.9 mph - N/A   Overcast
12:36 AM 39.2 °F 34.2 °F 37.4 °F 93% 30.08 in 10.0 mi ENE 6.9 mph - N/A   Overcast
12:56 AM 39.2 °F 33.6 °F 37.4 °F 93% 30.08 in 7.0 mi ENE 8.1 mph 16.1 mph N/A   Overcast
1:16 AM 39.2 °F 33.6 °F 37.4 °F 93% 30.08 in 8.0 mi ENE 8.1 mph - N/A   Overcast
1:36 AM 39.2 °F 34.2 °F 37.4 °F 93% 30.07 in 10.0 mi ENE 6.9 mph 16.1 mph N/A   Overcast
1:56 AM 39.2 °F 33.0 °F 37.4 °F 93% 30.07 in 8.0 mi NE 9.2 mph - N/A   Overcast
2:16 AM 39.2 °F 34.2 °F 37.4 °F 93% 30.08 in 10.0 mi NE 6.9 mph 21.9 mph N/A   Overcast
2:36 AM 39.2 °F 35.0 °F 37.4 °F 93% 30.08 in 10.0 mi ENE 5.8 mph 17.3 mph N/A   Overcast
2:56 AM 39.2 °F 35.9 °F 37.4 °F 93% 30.08 in 8.0 mi NE 4.6 mph - N/A   Overcast
3:16 AM 39.2 °F 33.6 °F 37.4 °F 93% 30.08 in 9.0 mi ENE 8.1 mph 17.3 mph N/A   Overcast
3:36 AM 39.2 °F 34.2 °F 37.4 °F 93% 30.08 in 9.0 mi ENE 6.9 mph - N/A   Overcast
3:56 AM 39.2 °F 34.2 °F 37.4 °F 93% 30.08 in 9.0 mi East 6.9 mph 18.4 mph N/A   Overcast
4:16 AM 39.2 °F 34.2 °F 37.4 °F 93% 30.08 in 10.0 mi NE 6.9 mph - N/A   Overcast
4:36 AM 39.2 °F 32.0 °F 37.4 °F 93% 30.07 in 8.0 mi ENE 11.5 mph 18.4 mph N/A   Overcast
4:56 AM 39.2 °F 33.0 °F 37.4 °F 93% 30.07 in 8.0 mi East 9.2 mph 17.3 mph N/A   Overcast
5:16 AM 39.2 °F 37.0 °F 37.4 °F 93% 30.06 in 10.0 mi NE 3.5 mph - N/A   Overcast
5:36 AM 39.2 °F 34.2 °F 37.4 °F 93% 30.06 in 10.0 mi NE 6.9 mph 19.6 mph N/A   Overcast
5:56 AM 39.2 °F 35.0 °F 37.4 °F 93% 30.06 in 10.0 mi NE 5.8 mph 24.2 mph N/A   Overcast
6:16 AM 39.2 °F 33.6 °F 37.4 °F 93% 30.06 in 7.0 mi NE 8.1 mph - N/A   Overcast
6:36 AM 39.2 °F 32.5 °F 37.4 °F 93% 30.05 in 10.0 mi ENE 10.4 mph 17.3 mph N/A   Overcast
6:56 AM 39.2 °F 34.2 °F 37.4 °F 93% 30.05 in 10.0 mi ENE 6.9 mph - N/A   Overcast
7:16 AM 39.2 °F 34.2 °F 37.4 °F 93% 30.06 in 10.0 mi ENE 6.9 mph - N/A   Overcast
7:36 AM 39.2 °F 35.9 °F 37.4 °F 93% 30.06 in 6.0 mi East 4.6 mph - N/A   Overcast
7:56 AM 39.2 °F 35.0 °F 37.4 °F 93% 30.06 in 10.0 mi East 5.8 mph - N/A   Overcast
8:16 AM 39.2 °F 34.2 °F 37.4 °F 93% 30.06 in 10.0 mi SSE 6.9 mph - N/A   Overcast
8:36 AM 39.2 °F 33.0 °F 37.4 °F 93% 30.06 in 7.0 mi East 9.2 mph - N/A   Overcast
8:56 AM 39.2 °F 34.2 °F 37.4 °F 93% 30.07 in 7.0 mi East 6.9 mph 19.6 mph N/A   Overcast
9:16 AM 39.2 °F - 37.4 °F 93% 30.06 in 7.0 mi Calm Calm - N/A   Overcast
9:36 AM 39.2 °F 35.0 °F 37.4 °F 93% 30.06 in 7.0 mi NE 5.8 mph - N/A   Overcast
9:56 AM 39.2 °F 33.0 °F 37.4 °F 93% 30.06 in 8.0 mi ENE 9.2 mph 16.1 mph N/A   Overcast
10:16 AM 39.2 °F 34.2 °F 37.4 °F 93% 30.06 in 8.0 mi ENE 6.9 mph 19.6 mph N/A   Overcast
10:36 AM 39.2 °F 35.0 °F 37.4 °F 93% 30.05 in 9.0 mi NNE 5.8 mph - N/A   Overcast
10:56 AM 39.2 °F 33.6 °F 37.4 °F 93% 30.06 in 9.0 mi NE 8.1 mph 16.1 mph N/A   Overcast
11:16 AM 39.2 °F 32.5 °F 37.4 °F 93% 30.06 in 7.0 mi ENE 10.4 mph 18.4 mph N/A   Overcast
11:36 AM 39.2 °F 33.6 °F 37.4 °F 93% 30.06 in 7.0 mi East 8.1 mph 18.4 mph N/A   Overcast
11:56 AM 39.2 °F 33.0 °F 37.4 °F 93% 30.05 in 7.0 mi ENE 9.2 mph 20.7 mph N/A   Overcast
12:16 PM 39.2 °F 33.6 °F 37.4 °F 93% 30.05 in 7.0 mi NE 8.1 mph 18.4 mph N/A   Overcast
12:36 PM 39.2 °F 33.6 °F 37.4 °F 93% 30.06 in 7.0 mi ENE 8.1 mph 16.1 mph N/A   Overcast
12:56 PM 39.2 °F 35.9 °F 37.4 °F 93% 30.06 in 7.0 mi ENE 4.6 mph - N/A   Overcast
1:16 PM 39.2 °F 33.6 °F 37.4 °F 93% 30.06 in 7.0 mi ENE 8.1 mph - N/A   Overcast
1:36 PM 39.2 °F 35.9 °F 37.4 °F 93% 30.06 in 5.0 mi ENE 4.6 mph 16.1 mph N/A   Overcast
1:56 PM 39.2 °F 34.2 °F 37.4 °F 93% 30.06 in 4.0 mi NE 6.9 mph 20.7 mph N/A   Overcast
2:16 PM 39.2 °F 33.0 °F 37.4 °F 93% 30.06 in 4.0 mi ENE 9.2 mph 16.1 mph N/A   Overcast
2:36 PM 39.2 °F 32.5 °F 37.4 °F 93% 30.07 in 3.0 mi ENE 10.4 mph 23.0 mph N/A   Overcast
2:56 PM 39.2 °F 35.9 °F 37.4 °F 93% 30.07 in 4.0 mi East 4.6 mph 18.4 mph N/A   Overcast
3:16 PM 39.2 °F 35.0 °F 37.4 °F 93% 30.07 in 6.0 mi ESE 5.8 mph - N/A   Overcast
3:36 PM 39.2 °F 34.2 °F 37.4 °F 93% 30.08 in 3.0 mi East 6.9 mph - N/A   Overcast
3:56 PM 39.2 °F 33.0 °F 37.4 °F 93% 30.08 in 3.0 mi NE 9.2 mph - N/A   Overcast
4:16 PM 39.2 °F 32.5 °F 37.4 °F 93% 30.08 in 3.0 mi ENE 10.4 mph 16.1 mph N/A   Overcast
4:36 PM 39.2 °F 35.9 °F 37.4 °F 93% 30.08 in 3.0 mi ENE 4.6 mph - N/A   Overcast
4:56 PM 39.2 °F 34.2 °F 37.4 °F 93% 30.07 in 4.0 mi ENE 6.9 mph - N/A   Overcast
5:16 PM 39.2 °F 34.2 °F 37.4 °F 93% 30.07 in 4.0 mi East 6.9 mph 16.1 mph N/A   Overcast
5:36 PM 39.2 °F 33.6 °F 37.4 °F 93% 30.07 in 4.0 mi ENE 8.1 mph - N/A   Overcast
5:56 PM 39.2 °F 32.5 °F 37.4 °F 93% 30.08 in 4.0 mi East 10.4 mph - N/A   Overcast
6:16 PM 39.2 °F 33.0 °F 37.4 °F 93% 30.08 in 7.0 mi ENE 9.2 mph 20.7 mph N/A   Overcast
6:36 PM 39.2 °F 32.5 °F 37.4 °F 93% 30.08 in 4.0 mi ENE 10.4 mph 25.3 mph N/A   Overcast
6:56 PM 39.2 °F 34.2 °F 37.4 °F 93% 30.08 in 4.0 mi ENE 6.9 mph - N/A   Overcast
7:16 PM 39.2 °F - 37.4 °F 93% 30.09 in 4.0 mi Calm Calm - N/A   Overcast
7:36 PM 39.2 °F 34.2 °F 37.4 °F 93% 30.09 in 4.0 mi ENE 6.9 mph 20.7 mph N/A   Overcast
7:56 PM 39.2 °F 33.6 °F 37.4 °F 93% 30.09 in 4.0 mi NE 8.1 mph - N/A   Overcast
8:16 PM 39.2 °F 33.6 °F 37.4 °F 93% 30.10 in 5.0 mi ENE 8.1 mph - N/A   Overcast
8:36 PM 39.2 °F 33.0 °F 37.4 °F 93% 30.10 in 3.0 mi ENE 9.2 mph 16.1 mph N/A   Overcast
8:56 PM 39.2 °F 34.2 °F 37.4 °F 93% 30.11 in 5.0 mi East 6.9 mph 23.0 mph N/A   Overcast
9:16 PM 37.4 °F 30.3 °F 37.4 °F 100% 30.11 in 9.0 mi NE 10.4 mph 19.6 mph N/A   Overcast
9:36 PM 39.2 °F 33.0 °F 37.4 °F 93% 30.12 in 10.0 mi NE 9.2 mph 16.1 mph N/A   Overcast
9:56 PM 37.4 °F 32.1 °F 37.4 °F 100% 30.12 in 7.0 mi ENE 6.9 mph - N/A   Overcast
10:16 PM 37.4 °F 30.8 °F 37.4 °F 100% 30.12 in 8.0 mi East 9.2 mph 18.4 mph N/A   Overcast
10:36 PM 37.4 °F 30.8 °F 37.4 °F 100% 30.13 in 10.0 mi ENE 9.2 mph - N/A   Overcast
10:56 PM 39.2 °F 33.6 °F 37.4 °F 93% 30.13 in 10.0 mi NE 8.1 mph 19.6 mph N/A   Overcast
11:16 PM 39.2 °F 34.2 °F 37.4 °F 93% 30.13 in 10.0 mi East 6.9 mph 19.6 mph N/A   Overcast
11:36 PM 37.4 °F 31.4 °F 37.4 °F 100% 30.13 in 8.0 mi ENE 8.1 mph 16.1 mph N/A   Overcast
11:56 PM 39.2 °F 34.2 °F 35.6 °F 87% 30.14 in 10.0 mi NE 6.9 mph 17.3 mph N/A   Overcast